St. James, MN

5:44 PM CDT on April 30, 2017 (GMT -0500)
Saint James Municipal

Weather History for KJYG - April, 2014

Change the Weather History Date:

Tuesday, April 8, 2014

  Actual Average Record
Temperature  
Mean Temperature 43 °F -  
Max Temperature 51 °F 53 °F 107 °F (1999)
Min Temperature 35 °F 32 °F 6 °F (2003)
Degree Days  
Heating Degree Days 22    
Moisture  
Dew Point 34 °F    
Average Humidity 74    
Maximum Humidity 93    
Minimum Humidity 47    
Precipitation  
Precipitation 0.00 in - - ()
Sea Level Pressure  
Sea Level Pressure 29.98 in    
Wind  
Wind Speed 12 mph (WNW)    
Max Wind Speed 22 mph    
Max Gust Speed 28 mph    
Visibility 10 miles    
Events      
Averages and records for this station are not official NWS values.
T = Trace of Precipitation, MM = Missing Value Source: NWS Daily Summary

Daily Weather History Graph

Daily Weather History Graph

Search for Another Location

Airport or City:

Trip Planner

Search our weather history database for the weather conditions in past years. The results will help you decide how hot, cold, wet, or windy it might be!

Date:

Astronomy

Apr. 08, 2014 Rise Set
Actual Time 6:47 AM CDT 7:53 PM CDT
Civil Twilight 6:17 AM CDT 8:23 PM CDT
Nautical Twilight 5:42 AM CDT 8:58 PM CDT
Astronomical Twilight 5:05 AM CDT 9:36 PM CDT
Moon 1:36 PM CDT (4/8) 3:12 AM CDT (4/8)
Length of Visible Light 14h 05m
Length of Day
13h 06m
Waxing Gibbous, 63% of the Moon is Illuminated
Apr 8
Waxing Gibbous
Apr 15
Full
Apr 22
Last Quarter
Apr 29
New
May 6
First Quarter

Hourly Weather History & Observations

Time (CDT) Temp. Windchill Dew Point Humidity Pressure Visibility Wind Dir Wind Speed Gust Speed Precip Events Conditions
12:15 AM 41.0 °F 35.2 °F 35.6 °F 81% 29.88 in 10.0 mi WNW 9.2 mph - N/A   Scattered Clouds
12:35 AM 41.0 °F 35.8 °F 37.4 °F 87% 29.87 in 10.0 mi WNW 8.1 mph - N/A   Scattered Clouds
12:54 AM 39.2 °F 33.6 °F 37.4 °F 93% 29.87 in 10.0 mi WNW 8.1 mph - N/A   Scattered Clouds
1:15 AM 41.0 °F 34.3 °F 37.4 °F 87% 29.87 in 10.0 mi WNW 11.5 mph - N/A   Mostly Cloudy
1:35 AM 42.8 °F 35.8 °F 37.4 °F 81% 29.87 in 10.0 mi WNW 13.8 mph - N/A   Overcast
1:55 AM 42.8 °F 36.6 °F 37.4 °F 81% 29.88 in 10.0 mi WNW 11.5 mph - N/A   Overcast
2:15 AM 42.8 °F 37.0 °F 37.4 °F 81% 29.88 in 10.0 mi WNW 10.4 mph - N/A   Overcast
2:35 AM 41.0 °F 34.7 °F 37.4 °F 87% 29.88 in 10.0 mi WNW 10.4 mph - N/A   Overcast
2:53 AM 42.8 °F 37.0 °F 37.4 °F 81% 29.88 in 10.0 mi WNW 10.4 mph - N/A   Overcast
3:15 AM 41.0 °F 35.2 °F 37.4 °F 87% 29.88 in 10.0 mi WNW 9.2 mph - N/A   Overcast
3:35 AM 41.0 °F 33.9 °F 37.4 °F 87% 29.88 in 10.0 mi WNW 12.7 mph - N/A   Light Drizzle
3:55 AM 41.0 °F 34.3 °F 37.4 °F 87% 29.88 in 10.0 mi NW 11.5 mph - N/A   Overcast
4:14 AM 39.2 °F 32.0 °F 37.4 °F 93% 29.88 in 10.0 mi NW 11.5 mph - N/A   Overcast
4:35 AM 39.2 °F 32.5 °F 35.6 °F 87% 29.89 in 10.0 mi WNW 10.4 mph - N/A   Overcast
4:54 AM 39.2 °F 32.0 °F 35.6 °F 87% 29.89 in 10.0 mi WNW 11.5 mph - N/A   Overcast
5:15 AM 39.2 °F 31.6 °F 35.6 °F 87% 29.90 in 10.0 mi NW 12.7 mph - N/A   Overcast
5:35 AM 39.2 °F 32.0 °F 33.8 °F 81% 29.91 in 10.0 mi NW 11.5 mph - N/A   Scattered Clouds
5:54 AM 37.4 °F 29.3 °F 35.6 °F 93% 29.92 in 10.0 mi WNW 12.7 mph 17.3 mph N/A   Clear
6:15 AM 37.4 °F 29.8 °F 35.6 °F 93% 29.93 in 10.0 mi WNW 11.5 mph - N/A   Clear
6:35 AM 37.4 °F 29.8 °F 33.8 °F 87% 29.94 in 10.0 mi NW 11.5 mph - N/A   Clear
6:54 AM 37.4 °F 29.8 °F 33.8 °F 87% 29.95 in 10.0 mi NW 11.5 mph 18.4 mph N/A   Clear
7:15 AM 37.4 °F 29.8 °F 33.8 °F 87% 29.96 in 10.0 mi NW 11.5 mph - N/A   Clear
7:35 AM 37.4 °F 29.3 °F 35.6 °F 93% 29.97 in 10.0 mi WNW 12.7 mph - N/A   Scattered Clouds
7:54 AM 37.4 °F 28.2 °F 35.6 °F 93% 29.98 in 10.0 mi WNW 16.1 mph 23.0 mph N/A   Mostly Cloudy
8:15 AM 37.4 °F 28.5 °F 33.8 °F 87% 29.98 in 10.0 mi WNW 15.0 mph 23.0 mph N/A   Mostly Cloudy
8:34 AM 37.4 °F 27.2 °F 33.8 °F 87% 29.98 in 10.0 mi WNW 19.6 mph 25.3 mph N/A   Scattered Clouds
8:55 AM 39.2 °F 29.8 °F 33.8 °F 81% 29.99 in 10.0 mi NW 18.4 mph 25.3 mph N/A   Scattered Clouds
9:15 AM 39.2 °F 29.8 °F 33.8 °F 81% 29.99 in 10.0 mi WNW 18.4 mph 27.6 mph N/A   Scattered Clouds
9:34 AM 39.2 °F 29.6 °F 33.8 °F 81% 30.00 in 10.0 mi WNW 19.6 mph 26.5 mph N/A   Mostly Cloudy
9:55 AM 39.2 °F 29.0 °F 33.8 °F 81% 30.01 in 10.0 mi NW 21.9 mph 25.3 mph N/A   Mostly Cloudy
10:15 AM 41.0 °F 31.6 °F 33.8 °F 76% 30.02 in 10.0 mi NW 20.7 mph 27.6 mph N/A   Scattered Clouds
10:34 AM 41.0 °F 31.9 °F 33.8 °F 76% 30.02 in 10.0 mi WNW 19.6 mph 26.5 mph N/A   Mostly Cloudy
10:55 AM 41.0 °F 31.4 °F 33.8 °F 76% 30.03 in 10.0 mi NW 21.9 mph 26.5 mph N/A   Overcast
11:15 AM 41.0 °F 31.9 °F 33.8 °F 76% 30.04 in 10.0 mi NW 19.6 mph 26.5 mph N/A   Overcast
11:34 AM 41.0 °F 32.2 °F 33.8 °F 76% 30.04 in 10.0 mi NW 18.4 mph 26.5 mph N/A   Overcast
11:55 AM 41.0 °F 32.2 °F 33.8 °F 76% 30.04 in 10.0 mi WNW 18.4 mph 25.3 mph N/A   Overcast
12:15 PM 42.8 °F 35.1 °F 33.8 °F 70% 30.05 in 10.0 mi WNW 16.1 mph 24.2 mph N/A   Overcast
12:34 PM 42.8 °F 34.3 °F 33.8 °F 70% 30.04 in 10.0 mi NW 19.6 mph 23.0 mph N/A   Mostly Cloudy
12:55 PM 44.6 °F 38.1 °F 35.6 °F 71% 30.04 in 10.0 mi NW 13.8 mph 20.7 mph N/A   Mostly Cloudy
1:15 PM 44.6 °F 37.4 °F 33.8 °F 66% 30.04 in 10.0 mi NW 16.1 mph 20.7 mph N/A   Mostly Cloudy
1:35 PM 46.4 °F 39.5 °F 37.4 °F 71% 30.03 in 10.0 mi NW 17.3 mph 20.7 mph N/A   Mostly Cloudy
1:54 PM 48.2 °F - 37.4 °F 66% 30.03 in 10.0 mi NW 16.1 mph - N/A   Scattered Clouds
2:15 PM 48.2 °F - 35.6 °F 62% 30.03 in 10.0 mi NW 16.1 mph 24.2 mph N/A   Scattered Clouds
2:35 PM 48.2 °F - 35.6 °F 62% 30.03 in 10.0 mi WNW 18.4 mph 24.2 mph N/A   Scattered Clouds
2:54 PM 46.4 °F 40.1 °F 35.6 °F 66% 30.03 in 10.0 mi NW 15.0 mph 24.2 mph N/A   Scattered Clouds
3:15 PM 48.2 °F - 35.6 °F 62% 30.03 in 10.0 mi NW 18.4 mph 24.2 mph N/A   Scattered Clouds
3:35 PM 48.2 °F - 35.6 °F 62% 30.03 in 10.0 mi NW 19.6 mph 24.2 mph N/A   Scattered Clouds
3:55 PM 50.0 °F - 35.6 °F 58% 30.03 in 10.0 mi NW 17.3 mph 20.7 mph N/A   Clear
4:15 PM 51.8 °F - 35.6 °F 54% 30.03 in 10.0 mi NW 19.6 mph 24.2 mph N/A   Clear
4:34 PM 51.8 °F - 33.8 °F 50% 30.02 in 10.0 mi NNW 15.0 mph 21.9 mph N/A   Scattered Clouds
4:55 PM 51.8 °F - 33.8 °F 50% 30.02 in 10.0 mi NNW 17.3 mph - N/A   Scattered Clouds
5:15 PM 51.8 °F - 33.8 °F 50% 30.02 in 10.0 mi NNW 16.1 mph 23.0 mph N/A   Clear
5:35 PM 51.8 °F - 33.8 °F 50% 30.02 in 10.0 mi NW 15.0 mph - N/A   Scattered Clouds
5:55 PM 51.8 °F - 32.0 °F 47% 30.02 in 10.0 mi NW 17.3 mph - N/A   Scattered Clouds
6:15 PM 51.8 °F - 33.8 °F 50% 30.02 in 10.0 mi NW 17.3 mph 20.7 mph N/A   Clear
6:35 PM 50.0 °F - 30.2 °F 47% 30.03 in 10.0 mi NW 12.7 mph - N/A   Clear
6:55 PM 48.2 °F - 33.8 °F 58% 30.03 in 10.0 mi NW 12.7 mph - N/A   Scattered Clouds
7:15 PM 48.2 °F - 33.8 °F 58% 30.03 in 10.0 mi NW 9.2 mph - N/A   Clear
7:35 PM 46.4 °F 42.9 °F 33.8 °F 62% 30.03 in 10.0 mi NW 6.9 mph - N/A   Clear
7:55 PM 44.6 °F 40.7 °F 33.8 °F 66% 30.03 in 10.0 mi WNW 6.9 mph - N/A   Clear
8:15 PM 42.8 °F 40.1 °F 33.8 °F 70% 30.03 in 10.0 mi West 4.6 mph - N/A   Clear
8:35 PM 42.8 °F 39.3 °F 32.0 °F 66% 30.04 in 10.0 mi West 5.8 mph - N/A   Clear
8:55 PM 42.8 °F 38.6 °F 32.0 °F 66% 30.04 in 10.0 mi West 6.9 mph - N/A   Clear
9:14 PM 41.0 °F 37.1 °F 32.0 °F 70% 30.04 in 10.0 mi West 5.8 mph - N/A   Clear
9:35 PM 42.8 °F 41.1 °F 30.2 °F 61% 30.03 in 10.0 mi WSW 3.5 mph - N/A   Clear
9:55 PM 39.2 °F 35.0 °F 30.2 °F 70% 30.03 in 10.0 mi SW 5.8 mph - N/A   Clear
10:14 PM 39.2 °F - 32.0 °F 75% 30.02 in 10.0 mi Calm Calm - N/A   Clear
10:35 PM 37.4 °F 33.8 °F 30.2 °F 75% 30.01 in 10.0 mi SSW 4.6 mph - N/A   Clear
10:55 PM 35.6 °F 32.8 °F 30.2 °F 81% 30.01 in 10.0 mi SSW 3.5 mph - N/A   Clear
11:15 PM 37.4 °F 33.8 °F 30.2 °F 75% 30.01 in 10.0 mi SSW 4.6 mph - N/A   Clear
11:35 PM 35.6 °F 31.7 °F 30.2 °F 81% 30.00 in 10.0 mi South 4.6 mph - N/A   Clear
11:55 PM 35.6 °F 30.7 °F 30.2 °F 81% 30.00 in 10.0 mi South 5.8 mph - N/A   Clear